[[{"header":{"parameterUnit":"m.s-1","parameterCategory":1,"la1":30.2992,"la2":30.254,"lo1":-89.0895,"lo2":-89.0443,"dy":0.0025,"dx":0.0025,"nx":19,"ny":19,"refTime":"2026-05-16T21:00:00:Z","depth":0,"parameterNumber":2,"parameterNumberName":"U-component_of_WINDS"},"data":[0,0,0,-3.078,-3.0783,-3.0935,-3.0935,-3.1135,-3.1137,0,0,0,0,0,0,0,0,0,0,0,-3.0738,-3.074,-3.078,-3.0784,-3.0935,-3.0935,-3.1135,-3.1137,0,0,0,0,0,0,0,0,0,0,0,-3.0738,-3.0739,-3.0741,-3.0784,-3.0935,-3.0935,-3.1134,-3.1018,0,0,0,0,0,0,0,0,0,0,-3.087,-3.0835,-3.0739,-3.0741,-3.0785,-3.0934,-3.0935,-3.1013,-3.1026,-3.1069,0,-3.1108,0,-3.1126,-3.1151,-3.1151,0,0,0,-3.0782,-3.0824,-3.0862,-3.0742,-3.0787,-3.0934,-3.0866,-3.102,-3.1034,-3.1086,-3.1111,-3.1118,-3.1129,-3.1152,-3.1153,-3.141,-3.1411,0,0,-3.0773,-3.0767,-3.0852,-3.0871,-3.0847,-3.0861,-3.0871,-3.1028,-3.1055,-3.1111,-3.1123,-3.1132,-3.1153,-3.1155,-3.1409,-3.141,0,0,0,-3.0751,-3.0762,-3.0796,-3.0863,-3.089,-3.0866,-3.0877,-3.1048,-3.106,-3.1125,-3.1135,-3.1155,-3.1157,-3.1407,-3.1409,-3.1467,0,0,0,-3.0746,-3.0748,-3.0792,-3.079,-3.0887,-3.0971,-3.0893,-3.1049,-3.1067,-3.1134,-3.1155,-3.1159,-3.1406,-3.1408,-3.1462,-3.1495,0,0,0,-3.0728,-3.0746,-3.0769,-3.0789,-3.0854,-3.0968,-3.0989,-3.1053,-3.1073,-3.1152,-3.116,-3.1405,-3.1408,-3.1458,-3.1488,-3.1561,0,0,0,-3.0707,-3.0819,-3.077,-3.0899,-3.0853,-3.1003,-3.0988,-3.11,-3.1174,-3.1156,-3.1406,-3.1409,-3.1457,-3.1484,-3.1556,-3.1621,-3.1647,0,0,-3.0844,-3.0835,-3.0911,-3.0872,-3.1029,-3.098,-3.1146,-3.122,-3.1234,-3.1351,-3.1357,-3.1464,-3.1488,-3.156,-3.1796,-3.1817,0,0,0,-3.0953,-3.1008,-3.1051,-3.1121,-3.118,-3.1233,-3.1283,-3.131,-3.141,-3.1292,-3.151,-3.1524,-3.1567,-3.1598,-3.1616,-3.1653,-3.1423,-3.1423,-3.1422,-3.1139,-3.115,-3.1277,-3.1306,-3.1375,-3.1425,-3.1482,-3.1528,-3.1519,-3.157,-3.1605,-3.1746,-3.1783,-3.1796,-3.1834,-3.164,-3.164,-3.164,-3.164,-3.1342,-3.1422,-3.1407,-3.1525,-3.1536,-3.1636,-3.1689,-3.168,-3.1775,-3.1721,-3.1759,-3.17,-3.1818,-3.1853,-3.1645,-3.1644,-3.1643,-3.1643,-3.1643,-3.1466,-3.1505,-3.1537,-3.164,-3.1718,-3.1744,-3.1836,-3.1843,-3.185,-3.1888,-3.1926,-3.1925,-3.1925,-3.1905,-3.1906,-3.1906,-3.1907,-3.1907,-3.1908,-3.1581,-3.1615,-3.169,-3.1763,-3.1809,-3.1871,-3.1922,-3.1969,-3.2022,-3.202,-3.202,-3.2006,-3.1828,-3.1783,-3.1915,-3.1914,-3.1913,-3.1912,-3.1912,-3.1783,-3.1738,-3.1856,-3.1902,-3.1988,-3.2065,-3.2073,-3.2166,-3.2206,-3.2251,-3.223,-3.2096,-3.2087,-3.2073,-3.2036,-3.2226,-3.2226,-3.2226,-3.2226,-3.1887,-3.1883,-3.2004,-3.2078,-3.2151,-3.217,-3.2304,-3.2345,-3.2382,-3.2407,-3.2381,-3.2332,-3.2317,-3.2317,-3.2298,-3.2263,-3.2507,-3.2507,-3.2507,-3.2012,-3.2015,-3.2127,-3.216,-3.2228,-3.2286,-3.2412,-3.2499,-3.2531,-3.2519,-3.2427,-3.2415,-3.2337,-3.231,-3.2296,-3.2266,-3.2203,0,0]},{"header":{"parameterUnit":"m.s-1","parameterCategory":1,"la1":30.2992,"la2":30.254,"lo1":-89.0895,"lo2":-89.0443,"dy":0.0025,"dx":0.0025,"nx":19,"ny":19,"refTime":"2026-05-16T21:00:00:Z","depth":0,"parameterNumber":3,"parameterNumberName":"V-component_of_WINDS"},"data":[0,0,0,4.8159,4.8161,4.8251,4.8251,4.8378,4.838,0,0,0,0,0,0,0,0,0,0,0,4.8142,4.8144,4.8158,4.8161,4.8251,4.8251,4.8378,4.838,0,0,0,0,0,0,0,0,0,0,0,4.8142,4.8143,4.8145,4.8161,4.8251,4.8251,4.8378,4.8305,0,0,0,0,0,0,0,0,0,0,4.8215,4.8211,4.8143,4.8145,4.8162,4.8251,4.8251,4.8301,4.8309,4.8344,0,4.838,0,4.8382,4.8389,4.839,0,0,0,4.8152,4.8205,4.8219,4.8145,4.8163,4.825,4.8208,4.8306,4.8315,4.8355,4.8382,4.8386,4.8384,4.839,4.8391,4.8622,4.8624,0,0,4.8147,4.8164,4.8213,4.8226,4.8216,4.8205,4.8211,4.8311,4.834,4.8382,4.8388,4.8386,4.8391,4.8392,4.8621,4.8623,0,0,0,4.8139,4.8161,4.8173,4.8221,4.8237,4.8208,4.8214,4.8335,4.8338,4.839,4.8388,4.8392,4.8394,4.8619,4.8621,4.8709,0,0,0,4.8136,4.8155,4.8171,4.8182,4.8235,4.8288,4.8237,4.8331,4.8342,4.8387,4.8392,4.8395,4.8618,4.862,4.8703,4.8747,0,0,0,4.8133,4.8155,4.8172,4.8182,4.8222,4.8286,4.8294,4.8333,4.8341,4.839,4.8395,4.8616,4.862,4.8698,4.8738,4.8811,0,0,0,4.8134,4.8249,4.8174,4.8301,4.8221,4.8341,4.8293,4.8381,4.8433,4.8393,4.8618,4.8621,4.8696,4.8733,4.8805,4.8873,4.8904,0,0,4.8288,4.8268,4.8342,4.8277,4.8414,4.8326,4.8475,4.8507,4.8496,4.858,4.8585,4.8705,4.8738,4.881,4.9074,4.9098,0,0,0,4.8396,4.8449,4.8482,4.8533,4.8561,4.8587,4.8595,4.8606,4.8677,4.8544,4.8752,4.8771,4.8812,4.8843,4.8864,4.8897,4.8637,4.8637,4.8637,4.8636,4.8616,4.8736,4.8727,4.8777,4.8783,4.8821,4.8836,4.8803,4.8852,4.8876,4.9039,4.9077,4.9092,4.9127,4.8912,4.8913,4.8913,4.8913,4.8857,4.8928,4.8879,4.8978,4.8955,4.9037,4.9046,4.9019,4.909,4.9019,4.9055,4.8978,4.912,4.9149,4.892,4.8919,4.8918,4.8917,4.8917,4.901,4.904,4.9053,4.9124,4.918,4.9166,4.9236,4.9214,4.9193,4.9228,4.9249,4.9248,4.9241,4.924,4.9241,4.9241,4.9242,4.9242,4.9243,4.9163,4.9174,4.9237,4.9276,4.9304,4.9339,4.9346,4.9372,4.9396,4.9373,4.9373,4.9332,4.9138,4.9088,4.9251,4.925,4.9249,4.9248,4.9247,4.939,4.9335,4.9432,4.9461,4.9503,4.9558,4.9529,4.9585,4.9604,4.9638,4.959,4.9451,4.9428,4.9412,4.937,4.9596,4.9596,4.9596,4.9596,4.9518,4.9505,4.9597,4.9644,4.9688,4.9671,4.9777,4.9782,4.9779,4.9789,4.9753,4.9697,4.9681,4.9667,4.9645,4.9606,4.9887,4.9887,4.9887,4.9655,4.9645,4.9741,4.9739,4.9769,4.9795,4.9894,4.9947,4.9932,4.9898,4.9795,4.9783,4.9692,4.9664,4.9626,4.9592,4.9519,0,0]}]]